Вернуться в каталог

ONEWEB-0499

АктивенСвязьPO
NORAD 54117·PAYLOAD·🇬🇧 United Kingdom

Запущен Oct 22, 2022 с Satish Dhawan Space Centre

Loading…

Ближайшие Пролёты (ближайшие 24 часа)

TLE

СвежийSource: CelesTrak SupGP

Эпоха: Sep 14, 2026, 14:53 UTC

1 54117C 22138E   26257.62062500 -.00000812  00000+0 -20305-2 0  2578
2 54117  87.9114 287.1545 0002088  88.4837  21.0236 13.19727610    10

Отслеживайте ONEWEB-0499 в реальном времени с AllMySat

Download on the App Store